SCP
-0 -0 -0 -0 0 0 0 0 0 0 0 -0 -0 0 0 0 -0 -0 -0 -0 -0 -0 -0 0 -0 -0 -0 -0 0 0 0 -0 -0 -0 -0 -0 0 0 0 0 0 -0 0 0
-0 -0 -0 0 0 0 0 0 0 0 0 0 0 0 0 0 -0 -0 0 -0 -0 -0 -0 -0 0 -0 -0 0 0 0 0 0 -0 -0 -0 0 0 0 0 -0 -0 0 0 0
-0 0 -0 0 0 0 0 0 0 0 0 0 0 0 0 0 0 0 -0 -0 0 0 0 0 0 0 0 0 0 0 0 -0 -0 0 -0 0 0 0 0 0 -0 -0 -0 -0
-0 0 0 0 0 0 -0 0 0 0 0 0 0 0 -0 0 0 0 0 0 -0 -0 0 0 0 0 -0 -0 -0 0 0 0 -0 -0 -0 0 0 0 0 0 0 -0 -0 0
0 0 0 -0 -0 0 0 0 0 0 0 0 0 -0 0 0 -0 0 0 -0 -0 -0 -0 0 0 -0 -0 -0 0 -0 -0 -0 0 -0 -0 0 0 0 -0 -0 0 -0 -0 -0
0 0 0 0 0 -0 0 0 0 0 0 -0 -0 -0 0 -0 -0 0 -0 0 -0 0 0 0 0 0 0 0 -0 -0 -0 -0 -0 0 -0 -0 0 0 -0 0 0 -0 -0 -0
0 0 0 0 -0 0 -0 -0 0 0 0 -0 0 -0 -0 0 0 0 0 0 -0 0 0 0 0 0 -0 -0 -0 0 0 0 0 -0 -0 -0 -0 -0 0 0 0 -0 0 -0
0 0 0 0 0 0 0 -0 0 0 0 -0 0 -0 -0 0 0 0 0 0 0 -0 -0 0 0 0 0 -0 -0 -0 -0 -0 -0 -0 -0 0 0 0 0 -0 -0 0 0 -0
0 0 0 0 0 0 0 -0 -0 0 0 0 0 -0 0 0 0 0 0 0 0 0 -0 0 0 0 0 0 0 -0 -0 -0 -0 -0 0 0 0 0 0 0 0 -0 0 -0
0 0 0 0 0 0 0 0 0 -0 -0 0 0 0 0 0 0 0 0 -0 0 0 0 0 0 0 0 0 0 0 -0 -0 -1 -0 -0 0 0 0 0 1 0 0 0 0
0 0 0 0 0 0 0 0 0 0 -0 -0 0 0 0 -0 0 0 0 0 -0 0 0 0 -0 -0 0 0 0 0 0 -0 -0 -0 -1 -1 -0 0 0 0 1 0 0 0
0 0 0 0 0 0 0 0 0 0 -0 -0 0 -0 0 0 -0 -0 -0 0 0 0 0 0 0 0 0 0 0 0 -0 -0 -0 -0 -0 -1 -1 -0 -0 -0 0 0 0 0
0 0 0 0 0 0 0 0 0 0 0 -0 -0 0 0 0 0 0 0 0 0 0 0 0 0 0 0 0 0 -0 0 -0 0 0 0 -0 -1 -1 -1 -0 -0 -0 -0 0
0 0 0 0 0 0 0 0 0 0 0 0 -0 0 0 0 0 0 0 0 0 0 0 0 -0 0 0 0 1 0 0 0 0 0 0 0 -0 -1 -1 -1 -0 -1 -1 -1
0 0 0 0 0 0 0 0 0 0 0 -0 0 -0 0 0 0 0 0 0 0 0 0 0 0 0 0 0 1 1 0 0 0 0 0 -0 -0 -0 -0 -0 -0 -1 -1 -1
0 0 0 0 0 0 0 0 0 0 0 0 0 0 0 0 0 0 0 0 0 0 0 0 0 0 0 0 0 1 0 0 0 -0 -1 -0 0 0 0 0 0 -0 -0 -1
0 0 0 0 0 0 0 0 0 0 0 0 0 0 0 0 0 0 0 0 -0 0 0 0 0 0 0 0 0 1 1 0 0 0 0 0 0 0 1 1 1 0 0 0
0 0 0 0 0 0 0 0 0 0 0 0 0 0 0 0 0 0 0 0 0 0 0 0 0 0 0 0 0 1 1 1 1 0 0 0 0 0 1 1 0 1 1 1
-0 0 0 0 0 0 0 0 0 0 0 0 0 0 0 0 -0 -0 -0 0 0 0 0 0 0 0 0 0 0 0 1 1 1 1 1 1 1 1 2 1 1 2 1 2
0 0 0 0 0 0 0 0 0 0 0 0 0 0 0 0 0 -0 -0 -0 0 0 0 0 0 0 0 0 0 0 1 1 2 1 1 1 1 1 0 1 2 3 3 1
0 0 0 0 0 0 0 0 0 0 0 0 0 0 0 0 0 0 0 0 0 0 0 0 0 0 0 0 0 0 0 0 1 1 1 1 1 1 1 2 2 2 2 3
0 0 -0 0 0 0 0 0 0 0 0 0 0 0 0 0 0 0 0 0 -0 -0 0 0 0 0 0 0 1 2 1 1 1 1 1 2 1 1 1 2 3 3 4 5
0 0 0 0 0 0 0 0 0 0 0 0 0 0 0 0 0 0 0 0 0 -0 -0 0 0 0 0 0 1 1 2 2 1 1 2 3 2 2 2 3 3 3 3 3
0 0 0 0 0 0 0 0 0 0 0 0 0 0 0 0 0 0 -0 0 1 0 0 -0 -0 0 1 1 1 1 1 2 2 2 2 3 3 2 2 3 3 2 2 3
0 0 0 0 0 0 0 0 0 0 0 0 0 0 0 0 0 0 1 1 -0 -0 0 -0 -0 1 2 2 3 2 2 1 1 2 4 3 3 3 3 3 3 2 3 3
-0 0 0 0 0 0 0 0 0 0 0 0 0 0 0 0 0 0 1 1 -0 -1 -1 0 1 0 3 5 4 6 3 3 2 3 3 3 4 3 4 3 2 0 0 0
Wind_Speed_500mb
57 38 52 54 47 40 26 25 36 31 19 27 33 29 25 31 44 46 52 56 60 62 60 61 61 60 58 56 55 55 56 57 54 52 45 43 40 37 35 34 33 30 30 27
36 55 47 44 44 42 44 33 37 27 13 18 31 29 27 26 43 51 51 57 60 56 59 64 65 64 65 64 62 59 63 63 64 56 53 45 41 38 38 34 32 37 32 28
48 27 48 48 46 47 46 46 37 31 22 28 26 31 30 23 34 45 52 56 54 59 61 65 69 71 69 68 66 63 65 63 63 57 50 48 41 40 40 40 36 35 38 34
48 31 52 43 51 50 51 47 36 32 24 25 31 29 38 40 34 36 50 54 61 66 65 64 68 71 74 72 68 67 66 67 60 64 51 58 54 47 44 39 36 36 38 38
42 50 45 54 50 48 43 34 37 42 35 34 43 21 33 25 36 38 42 57 61 66 71 72 73 76 78 73 70 66 67 72 68 67 64 56 59 49 37 38 37 42 39 45
52 34 47 47 37 46 22 36 29 31 33 38 48 40 34 35 36 37 44 55 62 64 70 72 72 70 72 71 68 64 68 78 76 74 73 72 61 58 44 43 37 35 32 36
49 56 38 37 45 39 46 40 21 28 33 40 39 42 39 18 34 40 39 53 60 65 69 75 73 72 72 73 74 74 78 85 82 79 76 76 75 70 65 50 41 38 34 35
40 42 58 53 51 46 58 49 26 40 30 37 35 33 43 44 48 15 46 46 51 61 65 72 78 79 77 78 84 83 82 91 87 84 83 78 75 73 65 60 51 43 42 38
43 53 53 42 43 48 50 53 50 34 18 19 31 38 32 26 36 49 48 43 53 54 64 69 75 82 80 77 83 94 98 94 92 91 87 85 81 80 67 66 62 57 49 42
34 34 40 53 54 51 39 48 44 34 44 41 26 36 27 36 46 38 45 56 50 54 61 68 71 78 83 82 83 87 95 96 94 98 97 93 89 85 82 81 75 68 60 56
31 28 43 43 52 52 44 37 46 35 34 27 29 26 33 33 34 44 42 54 58 57 57 64 69 70 77 81 77 80 83 95 95 92 95 96 94 90 84 87 86 80 75 71
24 20 26 52 47 50 55 49 54 29 47 40 30 20 15 9 24 36 42 49 54 51 51 52 56 57 61 71 78 83 83 83 86 93 91 90 91 91 88 87 88 83 81 76
2 26 29 29 37 48 53 55 49 50 32 43 37 11 17 13 8 7 18 21 30 41 43 45 46 52 60 66 76 80 80 84 80 82 85 92 92 92 97 91 86 86 85 81
15 22 42 39 33 36 51 54 59 56 40 37 39 30 26 17 8 14 15 18 14 18 26 38 46 53 55 60 71 87 83 75 76 76 77 92 99 99 97 97 93 89 87 85
14 24 14 31 5 9 23 57 61 59 55 51 38 41 38 23 20 15 15 13 7 10 14 24 33 39 40 49 67 81 81 84 76 85 88 90 95 101 103 103 101 96 93 89
11 6 13 29 22 18 21 28 32 42 55 55 52 48 26 24 30 49 42 39 35 36 35 28 33 34 37 42 52 61 73 80 85 88 95 91 89 93 100 105 105 101 98 94
11 11 14 29 24 22 32 43 41 39 39 37 45 35 32 39 32 34 38 32 35 40 35 29 27 33 35 39 40 48 60 65 76 91 94 90 92 89 90 89 93 98 99 96
14 14 15 13 15 34 27 27 37 49 42 40 38 33 31 34 46 48 50 55 60 60 49 36 37 30 34 36 40 40 46 64 74 77 84 91 93 90 83 82 86 88 92 96
26 18 14 22 26 21 14 8 10 19 28 33 38 32 34 50 53 56 54 50 55 60 63 53 48 42 39 39 39 42 47 55 63 76 76 83 84 82 82 82 84 83 75 76
28 24 18 15 32 35 7 21 25 14 18 4 1 11 16 28 28 23 39 43 47 54 55 58 59 56 50 52 40 47 53 58 64 69 72 71 73 78 78 75 73 69 69 64
24 22 28 26 24 16 27 15 4 26 10 13 13 13 15 17 22 40 54 56 44 38 38 39 45 49 54 42 41 53 51 54 56 60 62 65 68 70 68 66 63 60 59 55
18 18 21 28 33 43 21 23 22 21 25 27 29 26 31 36 39 47 53 62 63 64 57 48 45 41 41 43 48 48 50 49 49 54 56 61 63 61 54 64 59 55 57 59
24 23 17 22 21 22 22 29 34 36 42 46 46 44 45 52 53 57 62 57 60 59 56 47 44 37 36 46 49 45 46 47 47 48 56 58 54 50 51 52 48 48 53 53
35 38 28 32 39 44 44 52 45 40 52 55 52 57 54 64 65 71 66 58 52 50 48 43 38 34 30 39 45 44 42 47 47 46 46 43 44 44 43 42 40 44 46 49
26 22 28 37 42 55 60 58 64 48 34 47 51 53 54 58 70 70 72 65 51 40 34 29 28 25 27 32 34 34 35 33 39 39 40 43 39 42 40 42 42 40 40 41
45 47 34 35 47 42 48 55 44 39 47 52 55 61 59 57 71 72 49 39 26 20 21 22 21 19 21 21 31 24 33 36 37 39 38 35 36 37 41 50 50 49 45 49
Wind_Direction_500mb
192 199 207 204 214 228 234 216 223 205 169 219 232 237 233 194 205 203 193 198 197 199 198 200 201 202 202 204 205 207 207 210 207 208 208 210 213 215 214 214 221 239 238 246
183 216 211 215 209 222 229 227 227 222 183 240 250 238 235 195 211 211 199 204 205 197 196 199 200 201 203 205 207 208 211 213 213 212 210 210 213 218 218 222 227 234 232 234
199 206 213 205 212 213 224 222 223 231 206 237 255 252 242 216 207 212 212 210 206 204 199 199 200 202 202 205 206 208 211 212 216 209 212 213 213 213 221 221 227 228 228 230
221 199 195 202 215 211 220 222 242 241 230 237 198 252 222 217 203 209 211 208 203 206 203 201 202 204 204 207 208 210 213 215 215 216 212 214 213 216 221 223 228 226 232 234
204 214 196 211 210 207 229 220 221 235 245 255 249 248 253 207 216 210 211 208 209 204 203 202 203 205 206 206 208 210 213 219 216 219 213 219 217 221 221 223 226 234 232 237
222 208 217 219 214 219 213 227 224 232 236 240 238 242 246 239 213 221 212 214 210 207 206 207 207 207 209 208 207 209 213 219 220 220 220 221 220 213 217 223 225 227 233 237
212 225 218 211 214 210 204 199 199 215 223 237 233 233 235 248 235 215 222 210 211 206 205 206 206 206 208 208 209 210 215 218 220 221 222 222 226 228 223 223 228 225 232 235
207 217 204 202 210 200 199 207 209 212 219 228 216 239 237 233 234 258 228 213 208 207 208 206 207 207 207 207 209 211 216 221 220 222 225 227 229 230 233 236 230 233 231 234
199 227 182 200 200 201 197 216 222 250 218 265 230 218 245 249 229 223 217 218 213 207 207 209 209 210 211 210 210 212 217 227 224 224 226 229 231 231 229 231 238 233 230 227
255 221 192 196 198 216 210 203 216 226 240 242 233 238 233 214 219 223 220 217 211 209 208 210 210 211 212 213 213 214 221 226 227 226 227 228 231 233 234 239 238 238 232 231
249 233 189 183 203 198 201 208 217 224 223 227 237 242 226 231 216 219 219 216 216 211 207 210 211 212 213 215 215 215 217 227 232 230 229 228 231 232 233 237 239 238 238 239
220 231 218 206 202 212 204 205 203 213 211 237 266 244 122 238 228 218 222 219 219 215 213 213 215 214 215 216 215 217 217 218 222 229 229 229 230 231 231 233 237 239 238 236
127 222 210 204 206 201 219 200 214 216 232 216 220 224 125 130 117 201 231 225 223 226 226 226 222 217 217 218 216 215 216 217 217 220 223 228 229 230 230 231 232 236 236 234
269 250 226 216 204 205 211 213 214 212 223 230 219 236 196 212 213 172 192 206 201 215 229 227 227 228 229 221 218 215 214 214 213 214 215 223 227 227 228 230 231 234 235 235
325 228 235 255 308 270 258 216 211 221 222 228 233 222 236 241 245 290 307 293 223 213 244 241 227 224 222 220 218 219 216 214 209 215 218 226 227 230 232 234 237 239 239 238
338 218 264 249 232 233 240 231 241 240 233 233 241 248 248 218 249 269 266 280 277 274 274 274 251 234 224 223 219 218 218 216 212 215 222 227 230 230 232 236 239 241 242 242
289 285 246 231 216 250 249 229 225 231 233 238 239 247 258 261 259 260 277 276 279 283 283 268 247 245 247 231 224 230 229 216 216 219 226 229 230 233 234 235 237 239 241 242
266 238 258 256 194 237 249 219 224 227 230 231 245 253 256 255 253 255 257 265 272 274 276 261 254 255 248 248 242 235 219 222 224 229 228 231 233 235 237 238 238 238 238 239
219 254 245 235 228 278 242 170 233 230 239 232 241 246 252 247 252 254 258 257 258 258 259 260 256 262 258 255 254 230 222 217 216 227 233 234 236 239 240 241 242 242 238 239
204 224 248 221 238 234 251 249 213 272 256 233 349 252 270 272 253 256 254 255 265 261 264 266 269 270 266 258 243 225 221 218 231 230 230 233 236 237 241 245 242 237 238 232
188 213 225 228 249 248 264 86 341 204 63 17 7 349 323 284 292 295 289 286 280 280 280 277 276 267 254 245 230 224 220 223 241 233 229 232 235 238 241 243 242 237 234 225
196 203 216 233 242 238 270 309 237 7 325 328 327 328 323 308 304 296 288 285 283 276 277 279 278 265 250 238 237 229 231 245 240 232 224 228 231 229 229 235 233 230 227 227
247 260 233 230 235 259 298 296 303 312 313 314 308 308 309 303 301 303 299 288 280 271 268 270 268 268 239 234 229 229 247 239 232 223 223 224 226 225 215 225 220 216 220 218
265 273 264 271 258 267 273 272 287 304 295 299 300 298 301 302 304 306 303 292 280 271 264 259 253 249 236 231 232 233 228 223 222 217 214 218 219 213 209 207 209 208 214 219
270 282 261 261 255 263 268 271 276 284 291 296 301 299 296 299 299 305 302 295 280 265 248 243 231 222 219 217 215 213 213 204 196 198 200 197 191 196 197 192 201 210 217 223
258 256 251 255 256 258 257 256 270 284 290 292 297 300 296 298 301 304 291 282 255 244 225 202 197 177 157 181 178 174 190 185 185 185 188 187 185 186 190 200 203 205 204 218
Wind_Speed_850mb
57 38 52 54 47 40 26 25 36 31 19 27 33 29 25 31 44 46 52 56 60 62 60 61 61 60 58 56 55 55 56 57 54 52 45 43 40 37 35 34 33 30 30 27
36 55 47 44 44 42 44 33 37 27 13 18 31 29 27 26 43 51 51 57 60 56 59 64 65 64 65 64 62 59 63 63 64 56 53 45 41 38 38 34 32 37 32 28
48 27 48 48 46 47 46 46 37 31 22 28 26 31 30 23 34 45 52 56 54 59 61 65 69 71 69 68 66 63 65 63 63 57 50 48 41 40 40 40 36 35 38 34
48 31 52 43 51 50 51 47 36 32 24 25 31 29 38 40 34 36 50 54 61 66 65 64 68 71 74 72 68 67 66 67 60 64 51 58 54 47 44 39 36 36 38 38
42 50 45 54 50 48 43 34 37 42 35 34 43 21 33 25 36 38 42 57 61 66 71 72 73 76 78 73 70 66 67 72 68 67 64 56 59 49 37 38 37 42 39 45
52 34 47 47 37 46 22 36 29 31 33 38 48 40 34 35 36 37 44 55 62 64 70 72 72 70 72 71 68 64 68 78 76 74 73 72 61 58 44 43 37 35 32 36
49 56 38 37 45 39 46 40 21 28 33 40 39 42 39 18 34 40 39 53 60 65 69 75 73 72 72 73 74 74 78 85 82 79 76 76 75 70 65 50 41 38 34 35
40 42 58 53 51 46 58 49 26 40 30 37 35 33 43 44 48 15 46 46 51 61 65 72 78 79 77 78 84 83 82 91 87 84 83 78 75 73 65 60 51 43 42 38
43 53 53 42 43 48 50 53 50 34 18 19 31 38 32 26 36 49 48 43 53 54 64 69 75 82 80 77 83 94 98 94 92 91 87 85 81 80 67 66 62 57 49 42
34 34 40 53 54 51 39 48 44 34 44 41 26 36 27 36 46 38 45 56 50 54 61 68 71 78 83 82 83 87 95 96 94 98 97 93 89 85 82 81 75 68 60 56
31 28 43 43 52 52 44 37 46 35 34 27 29 26 33 33 34 44 42 54 58 57 57 64 69 70 77 81 77 80 83 95 95 92 95 96 94 90 84 87 86 80 75 71
24 20 26 52 47 50 55 49 54 29 47 40 30 20 15 9 24 36 42 49 54 51 51 52 56 57 61 71 78 83 83 83 86 93 91 90 91 91 88 87 88 83 81 76
2 26 29 29 37 48 53 55 49 50 32 43 37 11 17 13 8 7 18 21 30 41 43 45 46 52 60 66 76 80 80 84 80 82 85 92 92 92 97 91 86 86 85 81
15 22 42 39 33 36 51 54 59 56 40 37 39 30 26 17 8 14 15 18 14 18 26 38 46 53 55 60 71 87 83 75 76 76 77 92 99 99 97 97 93 89 87 85
14 24 14 31 5 9 23 57 61 59 55 51 38 41 38 23 20 15 15 13 7 10 14 24 33 39 40 49 67 81 81 84 76 85 88 90 95 101 103 103 101 96 93 89
11 6 13 29 22 18 21 28 32 42 55 55 52 48 26 24 30 49 42 39 35 36 35 28 33 34 37 42 52 61 73 80 85 88 95 91 89 93 100 105 105 101 98 94
11 11 14 29 24 22 32 43 41 39 39 37 45 35 32 39 32 34 38 32 35 40 35 29 27 33 35 39 40 48 60 65 76 91 94 90 92 89 90 89 93 98 99 96
14 14 15 13 15 34 27 27 37 49 42 40 38 33 31 34 46 48 50 55 60 60 49 36 37 30 34 36 40 40 46 64 74 77 84 91 93 90 83 82 86 88 92 96
26 18 14 22 26 21 14 8 10 19 28 33 38 32 34 50 53 56 54 50 55 60 63 53 48 42 39 39 39 42 47 55 63 76 76 83 84 82 82 82 84 83 75 76
28 24 18 15 32 35 7 21 25 14 18 4 1 11 16 28 28 23 39 43 47 54 55 58 59 56 50 52 40 47 53 58 64 69 72 71 73 78 78 75 73 69 69 64
24 22 28 26 24 16 27 15 4 26 10 13 13 13 15 17 22 40 54 56 44 38 38 39 45 49 54 42 41 53 51 54 56 60 62 65 68 70 68 66 63 60 59 55
18 18 21 28 33 43 21 23 22 21 25 27 29 26 31 36 39 47 53 62 63 64 57 48 45 41 41 43 48 48 50 49 49 54 56 61 63 61 54 64 59 55 57 59
24 23 17 22 21 22 22 29 34 36 42 46 46 44 45 52 53 57 62 57 60 59 56 47 44 37 36 46 49 45 46 47 47 48 56 58 54 50 51 52 48 48 53 53
35 38 28 32 39 44 44 52 45 40 52 55 52 57 54 64 65 71 66 58 52 50 48 43 38 34 30 39 45 44 42 47 47 46 46 43 44 44 43 42 40 44 46 49
26 22 28 37 42 55 60 58 64 48 34 47 51 53 54 58 70 70 72 65 51 40 34 29 28 25 27 32 34 34 35 33 39 39 40 43 39 42 40 42 42 40 40 41
45 47 34 35 47 42 48 55 44 39 47 52 55 61 59 57 71 72 49 39 26 20 21 22 21 19 21 21 31 24 33 36 37 39 38 35 36 37 41 50 50 49 45 49
Wind_Direction_850mb
192 199 207 204 214 228 234 216 223 205 169 219 232 237 233 194 205 203 193 198 197 199 198 200 201 202 202 204 205 207 207 210 207 208 208 210 213 215 214 214 221 239 238 246
183 216 211 215 209 222 229 227 227 222 183 240 250 238 235 195 211 211 199 204 205 197 196 199 200 201 203 205 207 208 211 213 213 212 210 210 213 218 218 222 227 234 232 234
199 206 213 205 212 213 224 222 223 231 206 237 255 252 242 216 207 212 212 210 206 204 199 199 200 202 202 205 206 208 211 212 216 209 212 213 213 213 221 221 227 228 228 230
221 199 195 202 215 211 220 222 242 241 230 237 198 252 222 217 203 209 211 208 203 206 203 201 202 204 204 207 208 210 213 215 215 216 212 214 213 216 221 223 228 226 232 234
204 214 196 211 210 207 229 220 221 235 245 255 249 248 253 207 216 210 211 208 209 204 203 202 203 205 206 206 208 210 213 219 216 219 213 219 217 221 221 223 226 234 232 237
222 208 217 219 214 219 213 227 224 232 236 240 238 242 246 239 213 221 212 214 210 207 206 207 207 207 209 208 207 209 213 219 220 220 220 221 220 213 217 223 225 227 233 237
212 225 218 211 214 210 204 199 199 215 223 237 233 233 235 248 235 215 222 210 211 206 205 206 206 206 208 208 209 210 215 218 220 221 222 222 226 228 223 223 228 225 232 235
207 217 204 202 210 200 199 207 209 212 219 228 216 239 237 233 234 258 228 213 208 207 208 206 207 207 207 207 209 211 216 221 220 222 225 227 229 230 233 236 230 233 231 234
199 227 182 200 200 201 197 216 222 250 218 265 230 218 245 249 229 223 217 218 213 207 207 209 209 210 211 210 210 212 217 227 224 224 226 229 231 231 229 231 238 233 230 227
255 221 192 196 198 216 210 203 216 226 240 242 233 238 233 214 219 223 220 217 211 209 208 210 210 211 212 213 213 214 221 226 227 226 227 228 231 233 234 239 238 238 232 231
249 233 189 183 203 198 201 208 217 224 223 227 237 242 226 231 216 219 219 216 216 211 207 210 211 212 213 215 215 215 217 227 232 230 229 228 231 232 233 237 239 238 238 239
220 231 218 206 202 212 204 205 203 213 211 237 266 244 122 238 228 218 222 219 219 215 213 213 215 214 215 216 215 217 217 218 222 229 229 229 230 231 231 233 237 239 238 236
127 222 210 204 206 201 219 200 214 216 232 216 220 224 125 130 117 201 231 225 223 226 226 226 222 217 217 218 216 215 216 217 217 220 223 228 229 230 230 231 232 236 236 234
269 250 226 216 204 205 211 213 214 212 223 230 219 236 196 212 213 172 192 206 201 215 229 227 227 228 229 221 218 215 214 214 213 214 215 223 227 227 228 230 231 234 235 235
325 228 235 255 308 270 258 216 211 221 222 228 233 222 236 241 245 290 307 293 223 213 244 241 227 224 222 220 218 219 216 214 209 215 218 226 227 230 232 234 237 239 239 238
338 218 264 249 232 233 240 231 241 240 233 233 241 248 248 218 249 269 266 280 277 274 274 274 251 234 224 223 219 218 218 216 212 215 222 227 230 230 232 236 239 241 242 242
289 285 246 231 216 250 249 229 225 231 233 238 239 247 258 261 259 260 277 276 279 283 283 268 247 245 247 231 224 230 229 216 216 219 226 229 230 233 234 235 237 239 241 242
266 238 258 256 194 237 249 219 224 227 230 231 245 253 256 255 253 255 257 265 272 274 276 261 254 255 248 248 242 235 219 222 224 229 228 231 233 235 237 238 238 238 238 239
219 254 245 235 228 278 242 170 233 230 239 232 241 246 252 247 252 254 258 257 258 258 259 260 256 262 258 255 254 230 222 217 216 227 233 234 236 239 240 241 242 242 238 239
204 224 248 221 238 234 251 249 213 272 256 233 349 252 270 272 253 256 254 255 265 261 264 266 269 270 266 258 243 225 221 218 231 230 230 233 236 237 241 245 242 237 238 232
188 213 225 228 249 248 264 86 341 204 63 17 7 349 323 284 292 295 289 286 280 280 280 277 276 267 254 245 230 224 220 223 241 233 229 232 235 238 241 243 242 237 234 225
196 203 216 233 242 238 270 309 237 7 325 328 327 328 323 308 304 296 288 285 283 276 277 279 278 265 250 238 237 229 231 245 240 232 224 228 231 229 229 235 233 230 227 227
247 260 233 230 235 259 298 296 303 312 313 314 308 308 309 303 301 303 299 288 280 271 268 270 268 268 239 234 229 229 247 239 232 223 223 224 226 225 215 225 220 216 220 218
265 273 264 271 258 267 273 272 287 304 295 299 300 298 301 302 304 306 303 292 280 271 264 259 253 249 236 231 232 233 228 223 222 217 214 218 219 213 209 207 209 208 214 219
270 282 261 261 255 263 268 271 276 284 291 296 301 299 296 299 299 305 302 295 280 265 248 243 231 222 219 217 215 213 213 204 196 198 200 197 191 196 197 192 201 210 217 223
258 256 251 255 256 258 257 256 270 284 290 292 297 300 296 298 301 304 291 282 255 244 225 202 197 177 157 181 178 174 190 185 185 185 188 187 185 186 190 200 203 205 204 218